DateTimeUTC,F1_A11,F1_S11,BsB_S11,BsG_S11,BsR_S11,BbsB_S11,BbsG_S11,BbsR_S11,BaB_A11,BaG_A11,BaR_A11,Tu_S11,T_S11,Uu_S11,U_S11,P_S11,T1_A11
2021-06-23T17:00:00Z,00000200,20000000,,,,,,,-000.23,0000.17,-000.38,19.4,25.8,04.4,03.0,0676.7,31.2
2021-06-23T17:01:00Z,00000200,20000000,,,,,,,-000.08,-000.23,0000.30,19.4,25.9,04.5,03.0,0676.7,31.1
2021-06-23T17:02:00Z,00000200,20000000,,,,,,,-000.12,-000.01,-000.08,19.4,25.9,04.5,03.0,0676.7,31.2
2021-06-23T17:03:00Z,00000200,60000000,,,,,,,0000.28,0000.25,0000.11,19.4,25.9,04.5,03.0,0676.7,31.2
2021-06-23T17:04:00Z,00000200,40000000,0000.93,0000.73,0000.92,0000.66,0000.20,0000.37,0000.48,0000.73,0000.43,19.4,25.7,04.4,03.0,0677.6,31.2
2021-06-23T17:05:00Z,00000200,00000000,0001.54,0000.73,0000.53,-000.01,0000.08,-000.01,0000.23,-000.12,0000.12,19.5,25.7,04.5,03.1,0677.6,31.2
2021-06-23T17:06:00Z,00000200,00000000,0001.56,0000.59,0000.45,0000.06,0000.31,-000.06,-000.12,-000.07,-000.17,19.5,25.6,04.5,03.1,0677.6,31.2
2021-06-23T17:07:00Z,00000200,00000000,0001.60,0000.50,0000.47,0000.32,0000.12,0000.28,0000.97,0000.75,0000.81,19.5,25.6,04.5,03.1,0677.6,31.2
2021-06-23T17:08:00Z,00000200,00000000,0000.38,0000.80,0000.62,-000.39,0000.13,-000.03,-000.02,-000.03,-000.32,19.5,25.6,04.7,03.3,0677.6,31.2
2021-06-23T17:09:00Z,00000200,00000000,0000.77,0000.78,0000.21,0000.29,0000.17,0000.03,0000.04,0000.20,0000.14,19.5,25.6,04.4,03.0,0677.6,31.2
2021-06-23T17:10:00Z,00000200,00000000,0001.46,0000.75,0000.23,-000.20,0000.31,0000.01,0000.36,0000.40,0000.17,19.5,25.6,04.5,03.1,0677.6,31.2
2021-06-23T17:11:00Z,00000200,00000000,0000.75,0000.54,0000.60,-000.12,0000.24,0000.07,0000.23,-000.17,0000.11,19.5,25.6,04.4,03.0,0677.6,31.2
2021-06-23T17:12:00Z,00000200,00000000,0001.04,0000.51,0000.55,-000.18,-000.03,-000.11,0000.19,0000.02,0000.13,19.5,25.6,04.4,03.1,0677.6,31.2
2021-06-23T17:13:00Z,00000200,00000000,0001.67,0000.36,0000.48,0000.14,0000.20,0000.07,0000.43,0001.28,0000.71,19.5,25.6,04.5,03.1,0677.6,31.2
2021-06-23T17:14:00Z,00000200,00000000,0001.55,0000.75,0000.42,-000.13,-000.10,0000.03,0000.69,0000.06,0000.30,19.5,25.7,04.6,03.2,0677.6,31.2
2021-06-23T17:15:00Z,00000200,00000000,0001.32,0000.79,0000.27,0000.13,0000.01,0000.05,-000.20,0000.32,-000.36,19.5,25.6,04.6,03.2,0677.7,31.2
2021-06-23T17:16:00Z,00000200,00000000,0001.42,0000.46,0000.30,0000.39,0000.26,0000.05,0000.71,0000.36,0000.42,19.6,25.7,04.8,03.3,0677.7,31.2
2021-06-23T17:17:00Z,00000200,00000000,0000.89,0000.64,0000.29,0000.05,0000.07,0000.06,-000.06,-000.20,0000.11,19.6,25.7,04.9,03.4,0677.6,31.2
2021-06-23T17:18:00Z,00000200,00000000,0000.76,0000.59,0000.29,0000.19,0000.28,0000.07,0000.27,0000.08,0000.14,19.6,25.7,04.7,03.2,0677.6,31.2
2021-06-23T17:19:00Z,00000200,00000000,0000.90,0000.74,0000.66,-000.45,0000.25,0000.08,0000.24,0000.61,0000.14,19.6,25.7,04.6,03.2,0677.6,31.2
2021-06-23T17:20:00Z,00000200,00000000,0001.21,0000.78,0000.54,0000.05,0000.21,0000.16,0000.38,0000.01,0000.23,19.6,25.7,04.7,03.2,0677.6,31.2
2021-06-23T17:21:00Z,00000200,00000000,0001.16,0000.65,0000.09,0000.20,0000.17,-000.18,0000.08,0000.23,-000.00,19.6,25.7,04.6,03.2,0677.6,31.2
2021-06-23T17:22:00Z,00000200,00000000,0000.82,0000.69,0000.47,0000.02,0000.14,-000.16,0000.57,0000.35,0000.25,19.6,25.7,04.6,03.2,0677.6,31.2
2021-06-23T17:23:00Z,00000200,00000000,0000.82,0000.67,0000.29,0000.23,0000.44,0000.03,0000.05,0000.35,0000.33,19.6,25.7,04.8,03.3,0677.6,31.2
2021-06-23T17:24:00Z,00000200,00000000,0000.84,0000.60,0000.42,-000.35,0000.20,0000.00,0000.58,0000.05,0000.18,19.6,25.7,04.6,03.2,0677.6,31.2
2021-06-23T17:25:00Z,00000200,00000000,0001.06,0000.72,0000.29,-000.09,0000.07,0000.18,-000.11,0000.39,0000.42,19.6,25.7,04.6,03.2,0677.6,31.2
2021-06-23T17:26:00Z,00000200,00000000,0001.02,0000.78,0000.54,-000.26,0000.11,0000.46,0000.73,0000.49,-000.03,19.6,25.7,04.8,03.3,0677.6,31.2
2021-06-23T17:27:00Z,00000200,00000000,0000.99,0000.76,0000.43,0000.19,0000.35,0000.05,-000.19,-000.51,0000.02,19.6,25.7,04.8,03.3,0677.6,31.2
2021-06-23T17:28:00Z,00000200,00000000,0001.66,0000.48,0000.59,0000.01,-000.05,0000.07,0000.34,0000.59,0000.25,19.6,25.7,04.4,03.0,0677.6,31.2
2021-06-23T17:29:00Z,00000200,00000000,0001.61,0000.47,0000.74,0000.18,0000.08,-000.10,0000.08,0000.03,-000.01,19.6,25.7,04.5,03.1,0677.6,31.2
2021-06-23T17:30:00Z,00000200,00000000,0000.82,0000.53,0000.53,0000.42,0000.13,0000.19,0000.39,0000.48,0000.70,19.6,25.7,04.5,03.1,0677.6,31.2
2021-06-23T17:31:00Z,00000200,00000000,0000.69,0000.48,0000.06,0000.19,0000.05,0000.00,0000.30,0000.09,-000.57,19.6,25.7,04.6,03.2,0677.6,31.2
2021-06-23T17:32:00Z,00000200,00000000,0001.37,0000.72,0000.16,-000.03,0000.44,-000.08,0000.32,0000.22,0000.66,19.6,25.7,04.6,03.2,0677.6,31.2
2021-06-23T17:33:00Z,00000200,00000000,0000.59,0000.56,0000.35,-000.13,0000.10,-000.10,0000.42,0000.43,0000.18,19.6,25.7,04.7,03.2,0677.6,31.2
2021-06-23T17:34:00Z,00000200,00000000,0001.14,0000.58,0000.51,0000.29,0000.50,0000.13,0000.51,0000.42,0000.15,19.6,25.7,04.8,03.3,0677.6,31.2
2021-06-23T17:35:00Z,00000200,00000000,0000.94,0000.69,0000.20,0000.17,0000.19,-000.12,0000.34,0000.50,0000.23,19.6,25.7,04.9,03.4,0677.6,31.2
2021-06-23T17:36:00Z,00000200,00000000,0001.12,0000.93,0000.64,-000.04,0000.01,0000.12,0000.21,-000.05,0000.11,19.6,25.7,04.9,03.4,0677.6,31.2
2021-06-23T17:37:00Z,00000200,00000000,0001.01,0000.92,0000.61,0000.21,0000.13,-000.26,0000.31,0000.44,0000.38,19.6,25.7,05.0,03.4,0677.6,31.2
2021-06-23T17:38:00Z,00000200,00000000,0001.28,0000.72,0000.43,0000.12,0000.16,0000.17,0000.25,-000.05,0000.17,19.6,25.7,04.9,03.4,0677.6,31.2
2021-06-23T17:39:00Z,00000200,00000000,0001.51,0000.38,0000.18,0000.22,0000.31,-000.44,0000.19,0000.34,0000.18,19.6,25.7,04.9,03.4,0677.6,31.2
2021-06-23T17:40:00Z,00000200,00000000,0001.20,0000.93,0000.45,-000.05,0000.54,-000.11,0000.13,-000.02,-000.12,19.6,25.7,05.0,03.4,0677.6,31.2
2021-06-23T17:41:00Z,00000200,00000000,0001.13,0000.78,0000.27,-000.13,0000.24,-000.08,0000.20,0000.25,0000.40,19.6,25.7,04.8,03.3,0677.5,31.2
2021-06-23T17:42:00Z,00000200,00000000,0000.81,0000.81,0000.25,0000.06,0000.22,-000.15,0000.28,0000.31,0000.03,19.6,25.7,04.6,03.1,0677.5,31.2
2021-06-23T17:43:00Z,00000200,00000000,0001.94,0000.98,0000.47,-000.30,0000.16,-000.06,0000.55,0000.46,0000.17,19.6,25.7,04.5,03.1,0677.6,31.2
2021-06-23T17:44:00Z,00000200,00000000,0001.42,0000.81,0000.49,0000.42,0000.23,-000.08,-000.08,0000.18,0000.34,19.6,25.7,04.6,03.2,0677.6,31.2
2021-06-23T17:45:00Z,00000200,00000000,0002.17,0001.06,0000.40,-000.08,0000.09,0000.09,0000.49,0000.32,0000.25,19.6,25.7,04.6,03.2,0677.6,31.2
2021-06-23T17:46:00Z,00000200,00000000,0000.98,0000.59,0000.53,0000.05,0000.29,0000.02,0000.60,0000.41,0000.00,19.6,25.7,04.7,03.2,0677.6,31.2
2021-06-23T17:47:00Z,00000200,00000000,0000.99,0000.41,0000.61,0000.06,0000.22,0000.12,0000.53,0000.34,0000.21,19.6,25.7,04.8,03.3,0677.6,31.2
2021-06-23T17:48:00Z,00000200,00000000,0001.64,0000.90,0000.54,0000.18,0000.21,0000.17,0000.18,0000.23,0000.45,19.6,25.7,04.9,03.4,0677.6,31.2
2021-06-23T17:49:00Z,00000200,00000000,0001.77,0000.88,0000.44,0000.06,0000.02,-000.09,0000.16,0000.19,0000.18,19.6,25.7,05.0,03.5,0677.6,31.2
2021-06-23T17:50:00Z,00000200,00000000,0001.85,0000.49,0000.68,0000.39,0000.11,0000.08,0000.43,0000.56,0000.11,19.6,25.7,05.0,03.5,0677.6,31.2
2021-06-23T17:51:00Z,00000200,00000000,0002.34,0000.76,0000.42,-000.01,0000.16,-000.11,0000.09,0000.00,0000.28,19.6,25.7,05.1,03.5,0677.6,31.2
2021-06-23T17:52:00Z,00000200,00000000,0001.05,0000.71,0000.42,0000.12,0000.25,0000.09,-000.01,0000.11,-000.28,19.6,25.7,04.9,03.4,0677.6,31.2
2021-06-23T17:53:00Z,00000200,00000000,0001.27,0000.60,0000.02,0000.64,-000.00,-000.21,0000.79,0000.19,0000.74,19.6,25.7,04.9,03.4,0677.6,31.2
2021-06-23T17:54:00Z,00000200,00000000,0001.33,0000.77,0000.62,-000.10,0000.24,0000.16,-000.22,0000.42,-000.42,19.6,25.7,04.8,03.3,0677.6,31.2
2021-06-23T17:55:00Z,00000200,00000000,0002.11,0000.69,0000.43,0000.55,0000.20,0000.15,0000.86,0000.28,0000.65,19.6,25.7,04.9,03.4,0677.6,31.2
2021-06-23T17:56:00Z,00000200,00000000,0001.80,0000.77,0000.36,0000.35,-000.08,-000.02,-000.16,0000.13,0000.22,19.6,25.7,05.0,03.5,0677.6,31.2
2021-06-23T17:57:00Z,00000200,40000000,,,,,,,0000.16,0000.17,-000.16,19.6,25.7,05.9,04.1,0677.6,31.2
2021-06-23T17:58:00Z,00000200,60000000,,,,,,,-000.02,-000.03,0000.01,19.4,25.8,04.9,03.3,0676.6,31.2
2021-06-23T17:59:00Z,00000200,20000000,,,,,,,0000.04,-000.09,0000.01,19.4,25.9,04.9,03.3,0676.6,31.2
